| time (UTC) | temp F | wind direction | speed MPH | gust MPH | rain 1hr in | rain 24hr in | rain mn in | humidity % | barometer mb |
| 20260905181113 | 90 | 7 | 4.0 | 5.0 | 0.00 | 0.00 | 0.00 | 41 | 1016.0 |
| 20260905180608 | 91 | 250 | 6.0 | 8.0 | 0.00 | 0.00 | 0.00 | 41 | 1016.0 |
| 20260905180104 | 90 | 240 | 4.0 | 6.0 | 0.00 | 0.00 | 0.00 | 42 | 1015.9 |
| 20260905175603 | 90 | 20 | 3.0 | 6.0 | 0.00 | 0.00 | 0.00 | 40 | 1015.9 |
| 20260905175058 | 91 | 315 | 4.0 | 5.0 | 0.00 | 0.00 | 0.00 | 41 | 1015.9 |
| 20260905174554 | 90 | 274 | 3.0 | 3.0 | 0.00 | 0.00 | 0.00 | 40 | 1015.8 |
| 20260905174049 | 90 | 17 | 3.0 | 3.0 | 0.00 | 0.00 | 0.00 | 41 | 1016.0 |
| 20260905173546 | 89 | 21 | 2.0 | 2.0 | 0.00 | 0.00 | 0.00 | 43 | 1016.1 |
| 20260905173041 | 89 | 218 | 1.0 | 2.0 | 0.00 | 0.00 | 0.00 | 44 | 1016.0 |
| 20260905172539 | 89 | 271 | 3.0 | 5.0 | 0.00 | 0.00 | 0.00 | 45 | 1016.0 |
| 20260905172034 | 90 | 187 | 1.0 | 2.0 | 0.00 | 0.00 | 0.00 | 43 | 1015.9 |
| 20260905171531 | 90 | 270 | 1.0 | 1.0 | 0.00 | 0.00 | 0.00 | 44 | 1016.1 |
| 20260905171027 | 89 | 188 | 0.0 | 0.0 | 0.00 | 0.00 | 0.00 | 45 | 1015.9 |
| 20260905170523 | 88 | 189 | 2.0 | 2.0 | 0.00 | 0.00 | 0.00 | 45 | 1015.9 |
| 20260905170018 | 87 | 311 | 3.0 | 3.0 | 0.00 | 0.00 | 0.00 | 47 | 1016.3 |
| 20260905165513 | 87 | 152 | 2.0 | 2.0 | 0.00 | 0.00 | 0.00 | 47 | 1016.1 |
| 20260905165008 | 86 | 228 | 3.0 | 3.0 | 0.00 | 0.00 | 0.00 | 49 | 1016.2 |
| 20260905164502 | 86 | 240 | 2.0 | 2.0 | 0.00 | 0.00 | 0.00 | 49 | 1016.2 |
| 20260905163956 | 88 | 10 | 2.0 | 2.0 | 0.00 | 0.00 | 0.00 | 47 | 1016.4 |
| 20260905163453 | 87 | 173 | 1.0 | 2.0 | 0.00 | 0.00 | 0.00 | 48 | 1016.4 |
| 20260905162949 | 86 | 255 | 2.0 | 2.0 | 0.00 | 0.00 | 0.00 | 50 | 1016.2 |
| 20260905162444 | 86 | 288 | 5.0 | 5.0 | 0.00 | 0.00 | 0.00 | 50 | 1016.4 |
| 20260905161939 | 86 | 189 | 1.0 | 1.0 | 0.00 | 0.00 | 0.00 | 50 | 1016.2 |
| 20260905161438 | 87 | 173 | 1.0 | 2.0 | 0.00 | 0.00 | 0.00 | 48 | 1016.4 |
| 20260905160936 | 85 | 199 | 3.0 | 3.0 | 0.00 | 0.00 | 0.00 | 51 | 1016.3 |
| 20260905160430 | 86 | 173 | 3.0 | 3.0 | 0.00 | 0.00 | 0.00 | 50 | 1016.1 |
| 20260905155929 | 86 | 175 | 1.0 | 2.0 | 0.00 | 0.00 | 0.00 | 52 | 1016.2 |
| 20260905155425 | 86 | 197 | 2.0 | 2.0 | 0.00 | 0.00 | 0.00 | 51 | 1016.4 |
| 20260905154923 | 85 | 175 | 1.0 | 1.0 | 0.00 | 0.00 | 0.00 | 52 | 1016.2 |
| 20260905154419 | 85 | 97 | 1.0 | 1.0 | 0.00 | 0.00 | 0.00 | 53 | 1016.3 |
| 20260905153915 | 85 | 166 | 0.0 | 1.0 | 0.00 | 0.00 | 0.00 | 53 | 1016.2 |
| 20260905153411 | 84 | 156 | 1.0 | 1.0 | 0.00 | 0.00 | 0.00 | 53 | 1016.3 |
| 20260905152910 | 83 | 128 | 1.0 | 1.0 | 0.00 | 0.00 | 0.00 | 54 | 1016.1 |
| 20260905152409 | 82 | 182 | 1.0 | 2.0 | 0.00 | 0.00 | 0.00 | 58 | 1016.3 |
| 20260905151905 | 81 | 214 | 1.0 | 1.0 | 0.00 | 0.00 | 0.00 | 60 | 1016.3 |
| 20260905151401 | 82 | 203 | 1.0 | 1.0 | 0.00 | 0.00 | 0.00 | 60 | 1016.3 |
| 20260905150900 | 81 | 187 | 0.0 | 0.0 | 0.00 | 0.00 | 0.00 | 60 | 1016.2 |
| 20260905150355 | 81 | 149 | 1.0 | 1.0 | 0.00 | 0.00 | 0.00 | 59 | 1016.3 |
| 20260905145852 | 83 | 207 | 1.0 | 2.0 | 0.00 | 0.00 | 0.00 | 58 | 1016.0 |
| 20260905145346 | 82 | 163 | 0.0 | 1.0 | 0.00 | 0.00 | 0.00 | 59 | 1016.3 |
| 20260905144846 | 80 | 148 | 0.0 | 1.0 | 0.00 | 0.00 | 0.00 | 61 | 1016.3 |
| 20260905144341 | 80 | 214 | 2.0 | 2.0 | 0.00 | 0.00 | 0.00 | 63 | 1016.3 |
| 20260905143839 | 78 | 169 | 0.0 | 1.0 | 0.00 | 0.00 | 0.00 | 65 | 1016.4 |
| 20260905143334 | 78 | 202 | 1.0 | 2.0 | 0.00 | 0.00 | 0.00 | 66 | 1016.1 |
| 20260905142833 | 78 | 187 | 3.0 | 3.0 | 0.00 | 0.00 | 0.00 | 65 | 1016.2 |
| 20260905142327 | 78 | 194 | 1.0 | 1.0 | 0.00 | 0.00 | 0.00 | 66 | 1016.0 |
| 20260905141823 | 77 | 171 | 1.0 | 1.0 | 0.00 | 0.00 | 0.00 | 68 | 1016.2 |
| 20260905141318 | 77 | 155 | 1.0 | 2.0 | 0.00 | 0.00 | 0.00 | 68 | 1016.1 |
| 20260905140814 | 76 | 142 | 1.0 | 1.0 | 0.00 | 0.00 | 0.00 | 69 | 1016.0 |
| 20260905140314 | 76 | 207 | 0.0 | 0.0 | 0.00 | 0.00 | 0.00 | 70 | 1015.7 |
| 20260905135812 | 75 | 203 | 0.0 | 0.0 | 0.00 | 0.00 | 0.00 | 71 | 1016.1 |
| 20260905135309 | 75 | 203 | 1.0 | 1.0 | 0.00 | 0.00 | 0.00 | 70 | 1015.8 |
| 20260905134804 | 75 | 183 | 3.0 | 3.0 | 0.00 | 0.00 | 0.00 | 71 | 1015.8 |
| 20260905134302 | 75 | 191 | 3.0 | 3.0 | 0.00 | 0.00 | 0.00 | 71 | 1015.9 |
| 20260905133757 | 75 | 168 | 1.0 | 1.0 | 0.00 | 0.00 | 0.00 | 71 | 1015.7 |
| 20260905133253 | 74 | 178 | 1.0 | 1.0 | 0.00 | 0.00 | 0.00 | 73 | 1015.6 |
| 20260905132751 | 73 | 184 | 1.0 | 1.0 | 0.00 | 0.00 | 0.00 | 74 | 1015.5 |
| 20260905132247 | 73 | 194 | 0.0 | 0.0 | 0.00 | 0.00 | 0.00 | 75 | 1015.3 |
| 20260905131742 | 73 | 179 | 0.0 | 0.0 | 0.00 | 0.00 | 0.00 | 75 | 1015.3 |
| 20260905131237 | 73 | 191 | 0.0 | 1.0 | 0.00 | 0.00 | 0.00 | 75 | 1015.3 |
| 20260905130732 | 73 | 187 | 0.0 | 0.0 | 0.00 | 0.00 | 0.00 | 75 | 1015.1 |
| 20260905130231 | 73 | 201 | 0.0 | 0.0 | 0.00 | 0.00 | 0.00 | 75 | 1014.9 |
| 20260905125726 | 73 | 166 | 1.0 | 1.0 | 0.00 | 0.00 | 0.00 | 75 | 1014.9 |
| 20260905125221 | 73 | 181 | 0.0 | 0.0 | 0.00 | 0.00 | 0.00 | 75 | 1015.3 |
| 20260905124718 | 73 | 164 | 0.0 | 0.0 | 0.00 | 0.00 | 0.00 | 75 | 1015.1 |
| 20260905124214 | 73 | 192 | 0.0 | 0.0 | 0.00 | 0.00 | 0.00 | 75 | 1015.0 |
| 20260905123708 | 73 | 206 | 0.0 | 1.0 | 0.00 | 0.00 | 0.00 | 75 | 1014.8 |
| 20260905123205 | 73 | 186 | 3.0 | 3.0 | 0.00 | 0.00 | 0.00 | 74 | 1014.9 |
| 20260905122705 | 74 | 204 | 2.0 | 2.0 | 0.00 | 0.00 | 0.00 | 74 | 1014.7 |
| 20260905122159 | 73 | 206 | 2.0 | 2.0 | 0.00 | 0.00 | 0.00 | 74 | 1014.9 |
| 20260905121654 | 73 | 195 | 0.0 | 0.0 | 0.00 | 0.00 | 0.00 | 74 | 1014.8 |
| 20260905121150 | 73 | 173 | 0.0 | 0.0 | 0.00 | 0.00 | 0.00 | 74 | 1014.6 |
| 20260905120649 | 73 | 188 | 0.0 | 0.0 | 0.00 | 0.00 | 0.00 | 74 | 1014.7 |
| 20260905120143 | 74 | 203 | 0.0 | 0.0 | 0.00 | 0.00 | 0.00 | 74 | 1014.8 |
| 20260905115638 | 74 | 187 | 0.0 | 0.0 | 0.00 | 0.00 | 0.00 | 73 | 1014.5 |
| 20260905115133 | 74 | 200 | 2.0 | 2.0 | 0.00 | 0.00 | 0.00 | 73 | 1014.8 |
| 20260905114632 | 74 | 196 | 2.0 | 2.0 | 0.00 | 0.00 | 0.00 | 73 | 1014.5 |
| 20260905114131 | 74 | 187 | 1.0 | 1.0 | 0.00 | 0.00 | 0.00 | 73 | 1014.8 |
| 20260905113626 | 75 | 181 | 0.0 | 1.0 | 0.00 | 0.00 | 0.00 | 73 | 1014.8 |
| 20260905113121 | 75 | 198 | 0.0 | 0.0 | 0.00 | 0.00 | 0.00 | 72 | 1014.7 |
| 20260905112618 | 75 | 185 | 0.0 | 0.0 | 0.00 | 0.00 | 0.00 | 72 | 1014.6 |
| 20260905112112 | 75 | 185 | 0.0 | 0.0 | 0.00 | 0.00 | 0.00 | 72 | 1014.8 |
| 20260905111606 | 75 | 179 | 0.0 | 0.0 | 0.00 | 0.00 | 0.00 | 72 | 1014.7 |
| 20260905111105 | 75 | 184 | 0.0 | 0.0 | 0.00 | 0.00 | 0.00 | 72 | 1014.8 |
| 20260905110604 | 75 | 186 | 0.0 | 0.0 | 0.00 | 0.00 | 0.00 | 71 | 1014.7 |
| 20260905110100 | 75 | 193 | 0.0 | 0.0 | 0.00 | 0.00 | 0.00 | 71 | 1014.7 |
| 20260905105554 | 75 | 202 | 0.0 | 0.0 | 0.00 | 0.00 | 0.00 | 71 | 1014.9 |
| 20260905105054 | 75 | 203 | 0.0 | 0.0 | 0.00 | 0.00 | 0.00 | 71 | 1014.9 |
| 20260905104550 | 75 | 196 | 0.0 | 0.0 | 0.00 | 0.00 | 0.00 | 71 | 1014.7 |
| 20260905104049 | 75 | 187 | 0.0 | 0.0 | 0.00 | 0.00 | 0.00 | 71 | 1014.7 |
| 20260905103545 | 76 | 184 | 0.0 | 0.0 | 0.00 | 0.00 | 0.00 | 70 | 1014.6 |
| 20260905103041 | 76 | 186 | 0.0 | 0.0 | 0.00 | 0.00 | 0.00 | 70 | 1014.4 |
| 20260905102536 | 76 | 197 | 0.0 | 1.0 | 0.00 | 0.00 | 0.00 | 70 | 1014.7 |
| 20260905102033 | 76 | 203 | 0.0 | 0.0 | 0.00 | 0.00 | 0.00 | 69 | 1014.3 |
| 20260905101531 | 77 | 208 | 0.0 | 0.0 | 0.00 | 0.00 | 0.00 | 68 | 1014.7 |
| 20260905101029 | 77 | 179 | 4.0 | 5.0 | 0.00 | 0.00 | 0.00 | 68 | 1014.6 |
| 20260905100526 | 77 | 152 | 0.0 | 1.0 | 0.00 | 0.00 | 0.00 | 68 | 1014.7 |
| 20260905100026 | 77 | 217 | 1.0 | 1.0 | 0.00 | 0.00 | 0.00 | 68 | 1014.8 |
| 20260905095520 | 77 | 190 | 0.0 | 0.0 | 0.00 | 0.00 | 0.00 | 68 | 1014.6 |
| 20260905095015 | 77 | 197 | 1.0 | 1.0 | 0.00 | 0.00 | 0.00 | 68 | 1014.6 |
| 20260905094510 | 77 | 201 | 1.0 | 2.0 | 0.00 | 0.00 | 0.00 | 68 | 1014.7 |
| 20260905094009 | 77 | 205 | 1.0 | 2.0 | 0.00 | 0.00 | 0.00 | 68 | 1015.0 |
| 20260905093504 | 77 | 220 | 0.0 | 1.0 | 0.00 | 0.00 | 0.00 | 68 | 1014.7 |
| 20260905093001 | 77 | 165 | 2.0 | 5.0 | 0.00 | 0.00 | 0.00 | 68 | 1014.7 |
| 20260905092455 | 77 | 204 | 1.0 | 1.0 | 0.00 | 0.00 | 0.00 | 67 | 1014.6 |
| 20260905091951 | 77 | 168 | 0.0 | 0.0 | 0.00 | 0.00 | 0.00 | 67 | 1014.8 |
| 20260905091450 | 77 | 191 | 0.0 | 0.0 | 0.00 | 0.00 | 0.00 | 67 | 1014.9 |
| 20260905090950 | 77 | 202 | 0.0 | 0.0 | 0.00 | 0.00 | 0.00 | 67 | 1015.0 |
| 20260905090445 | 77 | 184 | 0.0 | 0.0 | 0.00 | 0.00 | 0.00 | 67 | 1014.8 |
| 20260905085944 | 77 | 204 | 0.0 | 0.0 | 0.00 | 0.00 | 0.00 | 67 | 1014.6 |
| 20260905085444 | 77 | 178 | 1.0 | 1.0 | 0.00 | 0.00 | 0.00 | 66 | 1014.6 |
| 20260905084940 | 77 | 186 | 0.0 | 0.0 | 0.00 | 0.00 | 0.00 | 66 | 1015.0 |
| 20260905084439 | 78 | 200 | 0.0 | 1.0 | 0.00 | 0.00 | 0.00 | 66 | 1014.8 |
| 20260905083934 | 78 | 189 | 0.0 | 0.0 | 0.00 | 0.00 | 0.00 | 65 | 1014.9 |
| 20260905083430 | 78 | 148 | 0.0 | 0.0 | 0.00 | 0.00 | 0.00 | 65 | 1015.0 |
| 20260905082925 | 78 | 169 | 0.0 | 0.0 | 0.00 | 0.00 | 0.00 | 65 | 1014.8 |
| 20260905082421 | 78 | 175 | 0.0 | 0.0 | 0.00 | 0.00 | 0.00 | 65 | 1015.0 |
| 20260905081916 | 78 | 175 | 0.0 | 0.0 | 0.00 | 0.00 | 0.00 | 64 | 1014.9 |
| 20260905081411 | 78 | 168 | 0.0 | 1.0 | 0.00 | 0.00 | 0.00 | 64 | 1014.8 |
| 20260905080910 | 78 | 185 | 0.0 | 0.0 | 0.00 | 0.00 | 0.00 | 64 | 1015.0 |
| 20260905080410 | 78 | 118 | 3.0 | 3.0 | 0.00 | 0.00 | 0.00 | 63 | 1015.3 |
| 20260905075909 | 78 | 174 | 1.0 | 1.0 | 0.00 | 0.00 | 0.00 | 64 | 1015.3 |
| 20260905075403 | 78 | 152 | 1.0 | 1.0 | 0.00 | 0.00 | 0.00 | 64 | 1014.8 |
| 20260905074902 | 78 | 200 | 1.0 | 1.0 | 0.00 | 0.00 | 0.00 | 64 | 1015.3 |
| 20260905074358 | 78 | 56 | 1.0 | 1.0 | 0.00 | 0.00 | 0.00 | 64 | 1015.1 |
| 20260905073854 | 78 | 181 | 0.0 | 0.0 | 0.00 | 0.00 | 0.00 | 63 | 1014.9 |
| 20260905073349 | 78 | 206 | 0.0 | 0.0 | 0.00 | 0.00 | 0.00 | 63 | 1014.9 |
| 20260905072844 | 79 | 173 | 0.0 | 0.0 | 0.00 | 0.00 | 0.00 | 63 | 1015.0 |
| 20260905072338 | 79 | 154 | 1.0 | 1.0 | 0.00 | 0.00 | 0.00 | 63 | 1015.0 |
| 20260905071835 | 79 | 164 | 2.0 | 3.0 | 0.00 | 0.00 | 0.00 | 63 | 1015.0 |
| 20260905071332 | 79 | 153 | 0.0 | 1.0 | 0.00 | 0.00 | 0.00 | 63 | 1014.7 |
| 20260905070831 | 79 | 242 | 1.0 | 1.0 | 0.00 | 0.00 | 0.00 | 62 | 1014.6 |
| 20260905070328 | 79 | 149 | 5.0 | 7.0 | 0.00 | 0.00 | 0.00 | 62 | 1014.8 |
| 20260905065827 | 79 | 192 | 0.0 | 1.0 | 0.00 | 0.00 | 0.00 | 62 | 1014.9 |
| 20260905065325 | 79 | 194 | 1.0 | 2.0 | 0.00 | 0.00 | 0.00 | 62 | 1014.8 |
| 20260905064821 | 79 | 182 | 3.0 | 5.0 | 0.00 | 0.00 | 0.00 | 62 | 1014.8 |
| 20260905064316 | 79 | 211 | 3.0 | 3.0 | 0.00 | 0.00 | 0.00 | 62 | 1014.9 |
| 20260905063815 | 79 | 194 | 2.0 | 2.0 | 0.00 | 0.00 | 0.00 | 62 | 1014.9 |
| 20260905063311 | 80 | 192 | 5.0 | 6.0 | 0.00 | 0.00 | 0.00 | 61 | 1014.8 |
| 20260905062807 | 80 | 205 | 3.0 | 3.0 | 0.00 | 0.00 | 0.00 | 61 | 1014.8 |
| 20260905062301 | 80 | 196 | 3.0 | 3.0 | 0.00 | 0.00 | 0.00 | 61 | 1014.9 |
| 20260905061756 | 80 | 215 | 3.0 | 3.0 | 0.00 | 0.00 | 0.00 | 60 | 1014.8 |
| 20260905061250 | 81 | 192 | 3.0 | 5.0 | 0.00 | 0.00 | 0.00 | 59 | 1014.9 |
| 20260905060744 | 81 | 205 | 3.0 | 3.0 | 0.00 | 0.00 | 0.00 | 59 | 1014.8 |
| 20260905060242 | 81 | 215 | 4.0 | 5.0 | 0.00 | 0.00 | 0.00 | 59 | 1015.0 |
| 20260905055740 | 81 | 214 | 4.0 | 5.0 | 0.00 | 0.00 | 0.00 | 58 | 1014.8 |
| 20260905055235 | 82 | 222 | 3.0 | 3.0 | 0.00 | 0.00 | 0.00 | 59 | 1014.8 |
| 20260905054730 | 82 | 199 | 4.0 | 5.0 | 0.00 | 0.00 | 0.00 | 58 | 1014.9 |
| 20260905054227 | 82 | 194 | 6.0 | 7.0 | 0.00 | 0.00 | 0.00 | 57 | 1014.7 |
| 20260905053725 | 82 | 196 | 4.0 | 5.0 | 0.00 | 0.00 | 0.00 | 57 | 1014.9 |
| 20260905053221 | 83 | 188 | 4.0 | 5.0 | 0.00 | 0.00 | 0.00 | 57 | 1015.0 |
| 20260905052720 | 83 | 205 | 4.0 | 5.0 | 0.00 | 0.00 | 0.00 | 57 | 1014.6 |
| 20260905052215 | 83 | 215 | 5.0 | 6.0 | 0.00 | 0.00 | 0.00 | 56 | 1014.9 |
| 20260905051715 | 83 | 196 | 5.0 | 5.0 | 0.00 | 0.00 | 0.00 | 56 | 1014.7 |
| 20260905051212 | 83 | 198 | 4.0 | 5.0 | 0.00 | 0.00 | 0.00 | 56 | 1014.6 |
| 20260905050708 | 83 | 215 | 4.0 | 5.0 | 0.00 | 0.00 | 0.00 | 55 | 1014.5 |
| 20260905050205 | 84 | 222 | 3.0 | 3.0 | 0.00 | 0.00 | 0.00 | 55 | 1014.4 |
| 20260905045704 | 84 | 218 | 2.0 | 2.0 | 0.00 | 0.00 | 0.00 | 54 | 1014.4 |
| 20260905045200 | 84 | 182 | 2.0 | 3.0 | 0.00 | 0.00 | 0.00 | 54 | 1014.4 |
| 20260905044655 | 84 | 186 | 2.0 | 3.0 | 0.00 | 0.00 | 0.00 | 54 | 1014.4 |
| 20260905044149 | 84 | 120 | 1.0 | 2.0 | 0.00 | 0.00 | 0.00 | 54 | 1014.4 |
| 20260905043648 | 84 | 137 | 1.0 | 1.0 | 0.00 | 0.00 | 0.00 | 54 | 1014.3 |
| 20260905043143 | 84 | 196 | 0.0 | 0.0 | 0.00 | 0.00 | 0.00 | 54 | 1014.7 |
| 20260905042643 | 85 | 198 | 0.0 | 1.0 | 0.00 | 0.00 | 0.00 | 53 | 1014.5 |
| 20260905042137 | 85 | 189 | 1.0 | 2.0 | 0.00 | 0.00 | 0.00 | 52 | 1014.2 |
| 20260905041633 | 85 | 207 | 5.0 | 5.0 | 0.00 | 0.00 | 0.00 | 52 | 1014.4 |
| 20260905041128 | 85 | 195 | 2.0 | 2.0 | 0.00 | 0.00 | 0.00 | 53 | 1014.3 |
| 20260905040623 | 85 | 189 | 1.0 | 2.0 | 0.00 | 0.00 | 0.00 | 52 | 1014.3 |
| 20260905040121 | 86 | 194 | 2.0 | 3.0 | 0.00 | 0.00 | 0.00 | 51 | 1014.5 |
| 20260905035617 | 86 | 212 | 3.0 | 3.0 | 0.00 | 0.00 | 0.00 | 51 | 1014.4 |
| 20260905035113 | 86 | 198 | 3.0 | 3.0 | 0.00 | 0.00 | 0.00 | 49 | 1014.4 |
| 20260905034609 | 87 | 215 | 5.0 | 5.0 | 0.00 | 0.00 | 0.00 | 48 | 1014.2 |
| 20260905034108 | 87 | 201 | 4.0 | 5.0 | 0.00 | 0.00 | 0.00 | 48 | 1014.1 |
| 20260905033602 | 87 | 205 | 6.0 | 7.0 | 0.00 | 0.00 | 0.00 | 47 | 1014.1 |
| 20260905033058 | 87 | 208 | 5.0 | 6.0 | 0.00 | 0.00 | 0.00 | 46 | 1014.1 |
| 20260905032558 | 87 | 231 | 5.0 | 6.0 | 0.00 | 0.00 | 0.00 | 46 | 1014.1 |
| 20260905032053 | 87 | 212 | 5.0 | 6.0 | 0.00 | 0.00 | 0.00 | 45 | 1013.8 |
| 20260905031548 | 88 | 202 | 3.0 | 3.0 | 0.00 | 0.00 | 0.00 | 44 | 1014.1 |
| 20260905031048 | 89 | 268 | 6.0 | 8.0 | 0.00 | 0.00 | 0.00 | 42 | 1014.0 |
| 20260905030544 | 89 | 280 | 3.0 | 3.0 | 0.00 | 0.00 | 0.00 | 40 | 1013.6 |
| 20260905030044 | 89 | 283 | 3.0 | 3.0 | 0.00 | 0.00 | 0.00 | 40 | 1013.7 |
| 20260905025539 | 89 | 271 | 2.0 | 2.0 | 0.00 | 0.00 | 0.00 | 39 | 1013.5 |
| 20260905025035 | 89 | 264 | 2.0 | 2.0 | 0.00 | 0.00 | 0.00 | 39 | 1013.3 |
| 20260905024530 | 89 | 244 | 2.0 | 2.0 | 0.00 | 0.00 | 0.00 | 38 | 1013.4 |
| 20260905024025 | 89 | 172 | 3.0 | 3.0 | 0.00 | 0.00 | 0.00 | 38 | 1013.2 |
| 20260905023520 | 90 | 231 | 3.0 | 3.0 | 0.00 | 0.00 | 0.00 | 37 | 1013.1 |
| 20260905023015 | 90 | 312 | 5.0 | 5.0 | 0.00 | 0.00 | 0.00 | 36 | 1013.0 |
| 20260905022509 | 90 | 328 | 3.0 | 3.0 | 0.00 | 0.00 | 0.00 | 36 | 1013.1 |
| 20260905022005 | 90 | 288 | 2.0 | 2.0 | 0.00 | 0.00 | 0.00 | 35 | 1013.1 |
| 20260905021504 | 91 | 284 | 6.0 | 7.0 | 0.00 | 0.00 | 0.00 | 34 | 1013.0 |
| 20260905020959 | 91 | 73 | 7.0 | 8.0 | 0.00 | 0.00 | 0.00 | 33 | 1013.1 |
| 20260905020454 | 90 | 257 | 1.0 | 1.0 | 0.00 | 0.00 | 0.00 | 34 | 1012.8 |
| 20260905015953 | 90 | 236 | 1.0 | 1.0 | 0.00 | 0.00 | 0.00 | 34 | 1012.8 |
| 20260905015452 | 90 | 359 | 1.0 | 2.0 | 0.00 | 0.00 | 0.00 | 34 | 1012.9 |
| 20260905014951 | 90 | 337 | 2.0 | 3.0 | 0.00 | 0.00 | 0.00 | 33 | 1012.7 |
| 20260905014447 | 91 | 289 | 2.0 | 2.0 | 0.00 | 0.00 | 0.00 | 33 | 1012.8 |
| 20260905013942 | 91 | 5 | 1.0 | 1.0 | 0.00 | 0.00 | 0.00 | 33 | 1012.7 |
| 20260905013438 | 91 | 302 | 1.0 | 1.0 | 0.00 | 0.00 | 0.00 | 34 | 1012.7 |
| 20260905012933 | 92 | 291 | 2.0 | 2.0 | 0.00 | 0.00 | 0.00 | 33 | 1012.8 |
| 20260905012428 | 91 | 315 | 4.0 | 5.0 | 0.00 | 0.00 | 0.00 | 33 | 1012.8 |
| 20260905011925 | 92 | 267 | 2.0 | 3.0 | 0.00 | 0.00 | 0.00 | 33 | 1012.7 |
| 20260905011421 | 92 | 337 | 3.0 | 5.0 | 0.00 | 0.00 | 0.00 | 33 | 1012.7 |
| 20260905010916 | 93 | 347 | 5.0 | 7.0 | 0.00 | 0.00 | 0.00 | 33 | 1012.7 |
| 20260905010411 | 93 | 325 | 2.0 | 2.0 | 0.00 | 0.00 | 0.00 | 34 | 1012.5 |
| 20260905005907 | 93 | 291 | 5.0 | 6.0 | 0.00 | 0.00 | 0.00 | 33 | 1012.4 |
| 20260905005403 | 93 | 330 | 3.0 | 3.0 | 0.00 | 0.00 | 0.00 | 35 | 1012.4 |
| 20260905004857 | 93 | 335 | 3.0 | 3.0 | 0.00 | 0.00 | 0.00 | 35 | 1012.4 |
| 20260905004352 | 93 | 221 | 1.0 | 2.0 | 0.00 | 0.00 | 0.00 | 35 | 1012.3 |
| 20260905003847 | 93 | 306 | 4.0 | 5.0 | 0.00 | 0.00 | 0.00 | 35 | 1012.7 |
| 20260905003343 | 92 | 296 | 3.0 | 3.0 | 0.00 | 0.00 | 0.00 | 36 | 1012.4 |
| 20260905002838 | 92 | 275 | 5.0 | 6.0 | 0.00 | 0.00 | 0.00 | 36 | 1012.4 |
| 20260905002338 | 92 | 286 | 5.0 | 6.0 | 0.00 | 0.00 | 0.00 | 36 | 1012.3 |
| 20260905001833 | 94 | 219 | 4.0 | 5.0 | 0.00 | 0.00 | 0.00 | 35 | 1012.4 |
| 20260905001333 | 93 | 195 | 6.0 | 6.0 | 0.00 | 0.00 | 0.00 | 35 | 1012.1 |
| 20260905000828 | 94 | 357 | 4.0 | 6.0 | 0.00 | 0.00 | 0.00 | 35 | 1012.1 |
| 20260905000325 | 94 | 282 | 4.0 | 6.0 | 0.00 | 0.00 | 0.00 | 34 | 1012.2 |
| 20260904235818 | 94 | 2 | 4.0 | 5.0 | 0.00 | 0.00 | 0.00 | 35 | 1012.2 |
| 20260904235314 | 94 | 337 | 5.0 | 6.0 | 0.00 | 0.00 | 0.00 | 35 | 1012.2 |
| 20260904234808 | 93 | 281 | 4.0 | 5.0 | 0.00 | 0.00 | 0.00 | 34 | 1012.0 |
| 20260904234304 | 93 | 318 | 4.0 | 6.0 | 0.00 | 0.00 | 0.00 | 34 | 1012.2 |
| 20260904233759 | 93 | 352 | 6.0 | 7.0 | 0.00 | 0.00 | 0.00 | 35 | 1012.2 |
| 20260904233256 | 95 | 32 | 2.0 | 3.0 | 0.00 | 0.00 | 0.00 | 34 | 1012.3 |
| 20260904232752 | 94 | 233 | 5.0 | 6.0 | 0.00 | 0.00 | 0.00 | 32 | 1012.2 |
| 20260904232248 | 94 | 142 | 3.0 | 3.0 | 0.00 | 0.00 | 0.00 | 34 | 1012.3 |
| 20260904231743 | 94 | 272 | 5.0 | 6.0 | 0.00 | 0.00 | 0.00 | 33 | 1012.3 |
| 20260904231238 | 94 | 263 | 8.0 | 9.0 | 0.00 | 0.00 | 0.00 | 32 | 1012.3 |
| 20260904230739 | 94 | 82 | 9.0 | 9.0 | 0.00 | 0.00 | 0.00 | 34 | 1012.3 |
| 20260904230233 | 94 | 210 | 9.0 | 10.0 | 0.00 | 0.00 | 0.00 | 33 | 1012.2 |
| 20260904225732 | 93 | 287 | 11.0 | 13.0 | 0.00 | 0.00 | 0.00 | 34 | 1012.5 |
| 20260904225226 | 94 | 301 | 8.0 | 9.0 | 0.00 | 0.00 | 0.00 | 35 | 1012.4 |
| 20260904224725 | 94 | 318 | 5.0 | 6.0 | 0.00 | 0.00 | 0.00 | 34 | 1012.3 |
| 20260904224221 | 94 | 306 | 5.0 | 6.0 | 0.00 | 0.00 | 0.00 | 35 | 1012.5 |
| 20260904223720 | 93 | 268 | 3.0 | 3.0 | 0.00 | 0.00 | 0.00 | 37 | 1012.8 |
| 20260904223215 | 95 | 316 | 7.0 | 8.0 | 0.00 | 0.00 | 0.00 | 36 | 1012.5 |
| 20260904222711 | 93 | 309 | 7.0 | 8.0 | 0.00 | 0.00 | 0.00 | 37 | 1012.5 |
| 20260904222207 | 94 | 225 | 10.0 | 10.0 | 0.00 | 0.00 | 0.00 | 36 | 1012.3 |
| 20260904221705 | 94 | 203 | 10.0 | 13.0 | 0.00 | 0.00 | 0.00 | 36 | 1012.5 |
| 20260904221201 | 95 | 311 | 6.0 | 7.0 | 0.00 | 0.00 | 0.00 | 36 | 1012.8 |
| 20260904220655 | 94 | 321 | 3.0 | 3.0 | 0.00 | 0.00 | 0.00 | 36 | 1012.8 |
| 20260904220151 | 95 | 1 | 7.0 | 8.0 | 0.00 | 0.00 | 0.00 | 35 | 1013.1 |
| 20260904215650 | 95 | 305 | 4.0 | 5.0 | 0.00 | 0.00 | 0.00 | 37 | 1012.9 |
| 20260904215147 | 94 | 347 | 5.0 | 7.0 | 0.00 | 0.00 | 0.00 | 37 | 1012.7 |
| 20260904214641 | 94 | 96 | 4.0 | 5.0 | 0.00 | 0.00 | 0.00 | 37 | 1013.0 |
| 20260904214137 | 93 | 302 | 5.0 | 6.0 | 0.00 | 0.00 | 0.00 | 37 | 1013.1 |
| 20260904213635 | 94 | 257 | 5.0 | 8.0 | 0.00 | 0.00 | 0.00 | 37 | 1013.1 |
| 20260904213132 | 93 | 227 | 4.0 | 5.0 | 0.00 | 0.00 | 0.00 | 36 | 1013.0 |
| 20260904212632 | 93 | 322 | 3.0 | 6.0 | 0.00 | 0.00 | 0.00 | 36 | 1013.2 |
| 20260904212127 | 94 | 351 | 6.0 | 7.0 | 0.00 | 0.00 | 0.00 | 37 | 1013.2 |
| 20260904211626 | 93 | 307 | 5.0 | 6.0 | 0.00 | 0.00 | 0.00 | 37 | 1013.5 |
| 20260904211122 | 93 | 231 | 2.0 | 2.0 | 0.00 | 0.00 | 0.00 | 35 | 1013.3 |
| 20260904210622 | 94 | 235 | 7.0 | 9.0 | 0.00 | 0.00 | 0.00 | 36 | 1013.4 |
| 20260904210117 | 93 | 258 | 1.0 | 2.0 | 0.00 | 0.00 | 0.00 | 37 | 1013.5 |
| 20260904205613 | 92 | 283 | 4.0 | 7.0 | 0.00 | 0.00 | 0.00 | 37 | 1013.6 |
| 20260904205109 | 93 | 278 | 7.0 | 9.0 | 0.00 | 0.00 | 0.00 | 38 | 1013.5 |
| 20260904204604 | 93 | 162 | 2.0 | 2.0 | 0.00 | 0.00 | 0.00 | 35 | 1013.6 |
| 20260904204101 | 91 | 268 | 3.0 | 3.0 | 0.00 | 0.00 | 0.00 | 38 | 1013.6 |
| 20260904203556 | 92 | 299 | 8.0 | 8.0 | 0.00 | 0.00 | 0.00 | 37 | 1013.6 |
| 20260904203053 | 93 | 280 | 8.0 | 9.0 | 0.00 | 0.00 | 0.00 | 37 | 1014.0 |
| 20260904202549 | 92 | 346 | 5.0 | 7.0 | 0.00 | 0.00 | 0.00 | 39 | 1014.1 |
| 20260904202045 | 93 | 252 | 3.0 | 3.0 | 0.00 | 0.00 | 0.00 | 39 | 1014.1 |
| 20260904201544 | 93 | 214 | 5.0 | 8.0 | 0.00 | 0.00 | 0.00 | 41 | 1014.3 |
| 20260904201040 | 91 | 172 | 2.0 | 2.0 | 0.00 | 0.00 | 0.00 | 44 | 1014.3 |
| 20260904200538 | 91 | 284 | 4.0 | 5.0 | 0.00 | 0.00 | 0.00 | 43 | 1014.2 |
| 20260904200034 | 92 | 262 | 8.0 | 9.0 | 0.00 | 0.00 | 0.00 | 42 | 1014.4 |
| 20260904195532 | 91 | 226 | 5.0 | 7.0 | 0.00 | 0.00 | 0.00 | 39 | 1014.4 |
| 20260904195032 | 92 | 202 | 5.0 | 6.0 | 0.00 | 0.00 | 0.00 | 40 | 1014.4 |
| 20260904194527 | 93 | 288 | 2.0 | 3.0 | 0.00 | 0.00 | 0.00 | 40 | 1014.6 |
| 20260904194021 | 91 | 248 | 2.0 | 3.0 | 0.00 | 0.00 | 0.00 | 41 | 1014.7 |
| 20260904193516 | 92 | 268 | 3.0 | 3.0 | 0.00 | 0.00 | 0.00 | 42 | 1014.5 |
| 20260904193013 | 90 | 249 | 1.0 | 1.0 | 0.00 | 0.00 | 0.00 | 43 | 1014.7 |
| 20260904192511 | 91 | 23 | 4.0 | 5.0 | 0.00 | 0.00 | 0.00 | 40 | 1014.9 |
| 20260904192008 | 90 | 241 | 1.0 | 1.0 | 0.00 | 0.00 | 0.00 | 44 | 1014.9 |
| 20260904191504 | 89 | 186 | 4.0 | 5.0 | 0.00 | 0.00 | 0.00 | 45 | 1015.3 |
| 20260904191001 | 89 | 234 | 7.0 | 8.0 | 0.00 | 0.00 | 0.00 | 44 | 1015.1 |
| 20260904190456 | 90 | 234 | 6.0 | 7.0 | 0.00 | 0.00 | 0.00 | 45 | 1015.3 |
| 20260904185952 | 90 | 256 | 2.0 | 2.0 | 0.00 | 0.00 | 0.00 | 46 | 1015.3 |
| 20260904185448 | 89 | 219 | 1.0 | 2.0 | 0.00 | 0.00 | 0.00 | 44 | 1015.4 |
| 20260904184943 | 89 | 242 | 5.0 | 6.0 | 0.00 | 0.00 | 0.00 | 42 | 1015.4 |
| 20260904184443 | 89 | 234 | 7.0 | 8.0 | 0.00 | 0.00 | 0.00 | 43 | 1015.5 |
| 20260904183938 | 89 | 248 | 5.0 | 7.0 | 0.00 | 0.00 | 0.00 | 45 | 1015.5 |
| 20260904183433 | 89 | 10 | 4.0 | 5.0 | 0.00 | 0.00 | 0.00 | 48 | 1015.5 |
| 20260904182929 | 91 | 359 | 4.0 | 5.0 | 0.00 | 0.00 | 0.00 | 44 | 1015.6 |
| 20260904182424 | 89 | 13 | 3.0 | 5.0 | 0.00 | 0.00 | 0.00 | 49 | 1015.7 |
| 20260904181919 | 89 | 328 | 7.0 | 8.0 | 0.00 | 0.00 | 0.00 | 49 | 1015.7 |
| 20260904181414 | 87 | 290 | 1.0 | 1.0 | 0.00 | 0.00 | 0.00 | 51 | 1015.9 |